Погода в Жердя

Украина / Хмельницкая область     48°48′32″N   26°26′09″E
темп.,
°C
ветер,
м/с
пор.,
м/с
влажн.,
%
обл.,
%
осадки,
мм/ч
давл.,
гПа
погр.,
м
28 января, чт
чт2823:00−1ссз61179100 0.0 1009904
02:00−1ссз71179100 0.0 1007884
05:00−2сз71175100 0.0 1007924
08:00−2сз81279100 0.0 1007865
11:00−1сз81171100 0.0 1007948
14:00−1сз81165100 0.0 1006996
17:00−1сз7116998 0.0 1005918
20:00−2сз5107368 0.0 1005606
29 января, пт
пт2923:00−3з367463 0.0 1004338
02:00−3юз247481 0.0 1003166
05:00−3ю3564100 0.0 1001147
08:00−2ю3577100 0.4 1001220
11:00+1зюз4960100 0.1 1001828
14:00+2зсз51062100 0.1 10001188
17:000сз236768 0.0 100062
20:00−1ссв116679 0.0 100138
30 января, сб
сб3023:00−1юв236686 0.0 100155
02:00−1юв5107692 0.0 1000336
05:00−1ююв51083100 0.0 996320
08:000ююв61189100 0.6 995257
11:00+2юз3788100 0.2 994248
14:00+4ю347798 0.2 993218
17:00+2ю488860 0.0 991143
20:00+2юз7167863 0.1 991559
31 января, вс
вс3123:00−1зсз9158253 0.1 994838
02:00−2сз9147776 0.1 9991135
05:00−2сз71175100 0.0 10031089
08:00−3зсз7965100 0.1 10061091
11:00−2зсз466092 0.0 1008787
14:00−1з235189 0.0 1008660
17:00−2вюв2357100 0.0 1008107
20:00−2юв496085 0.0 1008483
1 февраля, пн
пн123:00−2юв6116287 0.0 1007571
02:00−2юв8136293 0.0 1004770
05:00−4вюв71192100 0.8 1000620
08:00−3в61195100 4.2 997545
11:00−1в4897100 3.8 994484
14:000сз4598100 6.1 993295
17:00−1зсз5993100 0.1 995459
20:00−3зсз5129197 0.1 1000496